Regional Weather Roundup
Issued by NWS

Home | Current Version | Previous Version | Graphics & Text | Print | Product List | Glossary On
Versions: 1 2 3 4 5 6 7 8 9 10 11 12 13 14 15 16 17 18 19 20 21 22 23 24 25 26 27 28 29 30 31 32 33 34 35 36 37 38 39 40 41 42 43 44 45 46 47 48 49 50
000
ASUS45 KPSR 300410
RWRAZ

ARIZONA HOURLY REGIONAL WEATHER ROUNDUP
NATIONAL WEATHER SERVICE PHOENIX AZ
900 PM MST FRI MAY 29 2015

NOTE: FAIR INDICATES FEW OR NO CLOUDS BELOW 12,000 FEET WITH NO
SIGNIFICANT WEATHER AND/OR OBSTRUCTIONS TO VISIBILITY.

AZZ001>003-036-300500-
NORTHWEST ARIZONA

CITY           SKY/WX    TMP DP  RH WIND       PRES   REMARKS
KINGMAN        CLEAR     74   9   8 S12       30.00R
$$

AZZ004>008-015-016-018-300500-
NORTH CENTRAL ARIZONA

CITY           SKY/WX    TMP DP  RH WIND       PRES   REMARKS
GRAND CANYON   PTCLDY    59  40  49 NE7       30.24R
WILLIAMS       CLOUDY    64  32  29 SE6       30.31R
PRESCOTT       CLEAR     68  26  20 CALM      30.12R
FLAGSTAFF      PTCLDY    52  38  58 CALM      30.27R
PAYSON         CLEAR     72  21  15 CALM      30.15R
PAGE           PTCLDY    77  38  24 N6        30.11R
$$

AZZ009>014-017-300500-
NORTHEAST ARIZONA

CITY           SKY/WX    TMP DP  RH WIND       PRES   REMARKS
WINSLOW        PTCLDY    75  35  23 NE8       30.12R
SAINT JOHNS    CLEAR     66  27  23 N5        30.16R
WINDOW ROCK    CLEAR     59  32  36 CALM      30.26R
SHOW LOW       PTCLDY    63  28  27 N5        30.23R
$$

AZZ023-300500-
GREATER PHOENIX AREA

CITY           SKY/WX    TMP DP  RH WIND       PRES   REMARKS
PHOENIX        PTCLDY    92  28  10 W5        29.81R
BUCKEYE        CLEAR     84  27  12 NW7       29.83R
LUKE AFB       CLEAR     89  33  13 W8        29.81R
DEER VALLEY    CLEAR     88  24  10 CALM      29.84R
SCOTTSDALE     CLEAR     89  29  11 CALM      29.86R
MESA-GATEWAY   CLEAR     88  30  12 NW5       29.86R
CHANDLER       PTCLDY    90  28  11 W9        29.83R
$$

AZZ027-028-300500-
SOUTHWEST MARICOPA COUNTY AND PINAL COUNTY

CITY           SKY/WX    TMP DP  RH WIND       PRES   REMARKS
CASA GRANDE    CLEAR     86  28  12 NW5       29.84R
GILA BEND      FAIR      87  32  14 W6        29.81R
$$

AZZ503-504-507>509-300500-
SOUTHEAST ARIZONA

CITY           SKY/WX    TMP DP  RH WIND       PRES   REMARKS
TUCSON         CLEAR     88  26  10 N9        29.93R
DAVIS-MONTHAN  CLEAR     86  26  11 NW7       29.92R
NOGALES        CLEAR     73  22  14 CALM      30.03R
SIERRA VISTA   CLEAR     76  23  14 W10       30.09R
DOUGLAS        PTCLDY    76  26  15 SW8       30.03R
SAFFORD        PTCLDY    80  20  10 W10       29.93R
$$

AZZ020-021-025-026-031-300500-
SOUTHWEST ARIZONA

CITY           SKY/WX    TMP DP  RH WIND       PRES   REMARKS
YUMA           PTCLDY    89  39  17 SW5       29.79R
$$

CAZ031-033-041-043-047-048-061-300500-
SOUTHERN CALIFORNIA

CITY           SKY/WX    TMP DP  RH WIND       PRES   REMARKS
DOWNTOWN L.A.  CLEAR     62  57  83 CALM      29.90S
L.A. AIRPORT   CLOUDY    59  57  93 W8        29.92R
SAN DIEGO      MOCLDY    63  55  75 NW3       29.93S
BURBANK        CLEAR     68  56  65 SE7       29.90R
ONTARIO        MOCLDY    70  56  61 W8        29.90R
RIVERSIDE      MOCLDY    72  55  55 W6        29.91R
PALM SPRINGS   MOCLDY    92  45  19 E6        29.81R
EL CENTRO NAS  PTCLDY    86  37  17 SE8       29.78R
IMPERIAL       PTCLDY    88  38  17 SE7       29.76R
BLYTHE         PTCLDY    90  36  14 S7        29.79R
NEEDLES        PTCLDY    94  17   6 SW9       29.81R
$$

NVZ020-UTZ003-300500-
SOUTHERN NEVADA-UTAH

CITY           SKY/WX    TMP DP  RH WIND       PRES   REMARKS
LAS VEGAS      PTCLDY    93  20   7 S13       29.83R
SALT LAKE CITY MOCLDY    67  47  48 SE5       30.11R
$$

NMZ009-TXZ055-300500-
NEW MEXICO-WEST TEXAS

CITY           SKY/WX    TMP DP  RH WIND       PRES   REMARKS
ALBUQUERQUE    PTCLDY    72  32  23 VRB3      30.15R
EL PASO        PTCLDY    85  20   9 N6        29.97R
$$


........................KEY........................
SKY/WX - SKY CONDITION/WEATHER
TMP    - TEMPERATURE IN FAHRENHEIT
DP     - DEW POINT IN FAHRENHEIT
RH     - RELATIVE HUMIDITY IN PERCENT
WIND   - DIRECTION AND SPEED IN MILES PER HOUR (MPH)
VRB    - VARIABLE WIND DIRECTION
PRES   - MEAN SEA LEVEL PRESSURE IN INCHES OF MERCURY
         F - FALLING PRESSURE   R - RISING PRESSURE
         S - STEADY PRESSURE
VSB    - VISIBILITY IN MILES
HX     - HEAT INDEX IN FAHRENHEIT
WCI    - WIND CHILL INDEX IN FAHRENHEIT
TC     - TEMPERATURE IN CELSIUS WHICH IS ALSO KNOWN AS
         TEMPERATURE IN CENTIGRADE
AFB    - AIR FORCE BASE
         LUKE AFB IS LUKE AIR FORCE BASE
         DAVIS-MONTHAN IS DAVIS-MONTHAN AIR FORCE BASE
NAS    - NAVAL AIR STATION
         EL CENTRO NAS IS EL CENTRO NAVAL AIR STATION
N/A    - NOT AVAILABLE



USA.gov is the U.S. government's official web portal to all federal, state and local government web resources and services.